Regional Weather Roundup
Issued by NWS

Home | Current Version | Previous Version | Text Only | Print | Product List | Glossary Off
Versions: 1 2 3 4 5 6 7 8 9 10 11 12 13 14 15 16 17 18 19 20 21 22 23 24 25 26 27 28 29 30 31 32 33 34 35 36 37 38 39 40 41 42 43 44 45 46 47 48 49 50

000
ASUS43 KFSD 230702
RWRSD

WEATHER ROUNDUP FOR SOUTH DAKOTA
NATIONAL WEATHER SERVICE SIOUX FALLS SD
200 AM CDT FRI JUN 23 2017

NOTE: "FAIR" INDICATES FEW OR NO CLOUDS BELOW 12,000 FEET WITH NO
SIGNIFICANT WEATHER AND/OR OBSTRUCTIONS TO VISIBILITY.


SDZ001>005-009-010-012>017-230800-
NORTHWEST AND NORTH CENTRAL SOUTH DAKOTA

CITY           SKY/WX    TMP DP  RH WIND       PRES   REMARKS
BUFFALO          N/A     54  43  66 NW25G35   30.07R
FAITH            N/A     53  45  74 NW20G28   30.06R
MOBRIDGE       CLEAR     60  43  53 NW16G24   29.93R
$$

SDZ012>016-024>037-041>051-057-063-072>074-230800-
SOUTHWEST AND SOUTH CENTRAL SOUTH DAKOTA

CITY           SKY/WX    TMP DP  RH WIND       PRES   REMARKS
RAPID CTY ARPT CLOUDY    58  35  42 N18       30.12R
PIERRE         CLEAR     59  40  49 NW15      29.96R
CUSTER         CLOUDY    52  28  39 NW8       30.19R
ELLSWORTH AFB  CLOUDY    58  35  40 N22G28    30.11S
PHILIP         CLOUDY    61  36  39 NW21G30   30.05R
PINE RIDGE     LGT RAIN  63  36  36 N24G35    30.12R
SPEARFISH      FAIR      54  36  50 NW15G23   30.20R
WINNER         FAIR      56  42  59 W7        29.97S
$$

SDZ004>011-016>023-039-040-230800-
NORTHEAST SOUTH DAKOTA

CITY           SKY/WX    TMP DP  RH WIND       PRES   REMARKS
ABERDEEN       CLEAR     58  42  55 NW12      29.88R
WATERTOWN      CLEAR     54  49  83 W9        29.83S
BROOKINGS      CLEAR     57  51  80 W8        29.85S
SISSETON         N/A     63  42  46 NW15      29.79R
$$

SDZ017-020-022-023-036>040-048>070-230800-
SOUTHEAST SOUTH DAKOTA

CITY           SKY/WX    TMP DP  RH WIND       PRES   REMARKS
SIOUX FALLS    CLEAR     57  52  83 CALM      29.85S
HURON          CLEAR     57  49  74 NW10      29.88R
CHAMBERLAIN    CLEAR     62  44  50 NW8       29.94R
MITCHELL       CLEAR     58  49  72 W9        29.89R
YANKTON        CLEAR     56  51  84 W6        29.87S
$$

ABBREVIATIONS USED IN REMARKS
   TC - TEMPERATURE IN CELSIUS
  WCI - WIND CHILL INDEX
   HX - HEAT INDEX
  VSB - VISIBILITY





USA.gov is the U.S. government's official web portal to all federal, state and local government web resources and services.